Location: Kalberh�ni
(46.4610°N, 7.2453°E)
Time: 06:44:36
(UTC+00:00)

Cosmos 1300 - Pass Details

Date: 20 June 2021
Orbit: 509 x 513 km, 82.5° (Epoch: 28 July)

Event Time Altitude Azimuth Distance (km) Brightness Sun altitude
Rises 20:57:45 0° 353° (N) 2,637 7.4 -11.8°
Reaches altitude 10° 20:59:55 10° 357° (N) 1,745 6.3 -12.0°
Maximum altitude 21:03:43 62° 79° (E) 580 2.8 -12.4°
Enters shadow 21:06:11 20° 156° (SSE) 1,215 3.9 -12.6°
